TimeEDT,TemperatureF,Dew PointF,Humidity,Sea Level PressureIn,VisibilityMPH,Wind Direction,Wind SpeedMPH,Gust SpeedMPH,PrecipitationIn,Events,Conditions,WindDirDegrees,DateUTC
12:53 AM,62.1,55.9,80,30.14,10.0,Calm,Calm,-,N/A,,Scattered Clouds,0,2013-04-17 04:53:00
1:53 AM,64.9,57.0,75,30.14,10.0,Calm,Calm,-,N/A,,Overcast,0,2013-04-17 05:53:00
2:53 AM,63.0,55.9,78,30.14,10.0,Calm,Calm,-,N/A,,Mostly Cloudy,0,2013-04-17 06:53:00
3:53 AM,64.0,55.9,75,30.19,3.0,North,19.6,27.6,N/A,Rain,Heavy Rain,350,2013-04-17 07:53:00
3:58 AM,62.1,57.0,84,30.25,2.5,North,12.7,27.6,0.09,Rain-Thunderstorm,Thunderstorms and Rain,350,2013-04-17 07:58:00
4:18 AM,60.1,57.9,93,30.24,8.0,ENE,5.8,-,0.20,Rain-Thunderstorm,Light Thunderstorms and Rain,60,2013-04-17 08:18:00
4:31 AM,61.0,57.9,90,30.26,7.0,SE,4.6,-,0.22,Rain,Light Rain,140,2013-04-17 08:31:00
4:53 AM,61.0,57.9,90,30.18,4.0,ESE,5.8,-,0.26,Rain,Rain,120,2013-04-17 08:53:00
5:53 AM,60.1,57.9,93,30.18,10.0,Calm,Calm,-,0.02,Rain,Light Rain,0,2013-04-17 09:53:00
6:53 AM,59.0,57.9,96,30.19,7.0,NE,4.6,-,0.00,,Mostly Cloudy,40,2013-04-17 10:53:00
7:36 AM,61.0,57.9,90,30.24,10.0,Calm,Calm,-,N/A,Thunderstorm,Thunderstorm,0,2013-04-17 11:36:00
7:53 AM,61.0,59.0,93,30.19,10.0,NNW,3.5,-,N/A,Thunderstorm,Thunderstorm,340,2013-04-17 11:53:00
8:53 AM,61.0,59.0,93,30.21,6.0,NW,5.8,-,0.05,Rain-Thunderstorm,Thunderstorms and Rain,320,2013-04-17 12:53:00
9:30 AM,60.1,59.0,96,30.28,2.0,SSE,4.6,-,0.07,Rain-Thunderstorm,Heavy Thunderstorms and Rain,160,2013-04-17 13:30:00
9:53 AM,60.1,59.0,96,30.22,2.0,East,6.9,-,0.11,Rain-Thunderstorm,Light Thunderstorms and Rain,100,2013-04-17 13:53:00
10:06 AM,60.1,59.0,96,30.28,2.0,NE,4.6,-,0.01,Rain,Light Rain,50,2013-04-17 14:06:00
10:18 AM,61.0,59.0,93,30.29,2.0,NNE,3.5,-,0.02,Rain,Rain,30,2013-04-17 14:18:00
10:28 AM,61.0,60.1,97,30.29,2.0,ENE,5.8,-,0.03,Rain,Light Rain,70,2013-04-17 14:28:00
10:53 AM,61.0,60.1,97,30.27,2.0,North,5.8,-,0.05,Rain,Rain,360,2013-04-17 14:53:00
11:04 AM,61.0,59.0,93,30.33,9.0,North,5.8,-,0.00,Rain,Light Rain,350,2013-04-17 15:04:00
11:22 AM,61.0,59.0,93,30.31,4.0,NNE,3.5,-,0.04,Rain,Rain,30,2013-04-17 15:22:00
11:53 AM,62.1,59.0,90,30.27,9.0,Variable,3.5,-,0.05,Rain,Light Rain,0,2013-04-17 15:53:00
12:53 PM,62.1,59.0,90,30.27,10.0,Calm,Calm,-,0.03,Rain,Light Rain,0,2013-04-17 16:53:00
1:53 PM,62.1,60.1,93,30.23,5.0,South,4.6,-,0.07,Rain,Light Rain,170,2013-04-17 17:53:00
2:53 PM,62.1,60.1,93,30.16,10.0,SSE,9.2,-,0.04,Rain,Light Rain,160,2013-04-17 18:53:00
3:53 PM,66.0,59.0,78,30.11,10.0,WNW,5.8,-,0.00,,Overcast,290,2013-04-17 19:53:00
4:53 PM,66.0,59.0,78,30.11,10.0,NE,3.5,-,N/A,,Overcast,40,2013-04-17 20:53:00
5:53 PM,66.9,60.1,79,30.10,10.0,ENE,9.2,-,N/A,,Overcast,70,2013-04-17 21:53:00
6:53 PM,66.9,57.9,73,30.10,10.0,NE,5.8,-,N/A,,Overcast,50,2013-04-17 22:53:00
7:53 PM,63.0,57.9,84,30.09,10.0,Calm,Calm,-,N/A,,Overcast,0,2013-04-17 23:53:00
8:53 PM,60.1,57.0,90,30.10,10.0,Calm,Calm,-,N/A,,Mostly Cloudy,0,2013-04-18 00:53:00
9:53 PM,57.0,55.9,96,30.10,10.0,Calm,Calm,-,N/A,,Mostly Cloudy,0,2013-04-18 01:53:00
10:53 PM,57.9,55.0,90,30.09,10.0,Calm,Calm,-,N/A,,Scattered Clouds,0,2013-04-18 02:53:00
11:53 PM,55.9,55.0,97,30.06,9.0,Calm,Calm,-,N/A,,Scattered Clouds,0,2013-04-18 03:53:00